GW5267 Weather Reports


time (UTC)temp
C
wind
direction
speed
KPH
gust
KPH
rain 1hr
cm
rain 24hr
cm
rain mn
cm
humidity
%
barometer
mb
20260507231554 12 249 12.9 16.1 0.00 0.00 0.00 47 1011.9
20260507231051 12 292 4.8 12.9 0.00 0.00 0.00 46 1011.9
20260507230548 12 304 8.0 16.1 0.00 0.00 0.00 47 1011.8
20260507230044 12 275 4.8 14.5 0.00 0.00 0.00 49 1011.9
20260507225539 12 269 3.2 11.3 0.00 0.00 0.00 48 1011.9
20260507225036 12 309 9.7 14.5 0.00 0.00 0.00 46 1012.0
20260507224531 12 296 3.2 17.7 0.00 0.00 0.00 47 1011.9
20260507224028 12 268 3.2 12.9 0.00 0.00 0.00 47 1011.8
20260507223524 12 284 6.4 16.1 0.00 0.00 0.00 46 1011.8
20260507223021 13 290 8.0 12.9 0.00 0.00 0.00 48 1011.7
20260507222519 13 293 8.0 11.3 0.00 0.00 0.00 48 1011.7
20260507222015 12 262 9.7 14.5 0.00 0.00 0.00 49 1011.7
20260507221511 12 273 9.7 14.5 0.00 0.00 0.00 47 1011.8
20260507221008 13 305 6.4 16.1 0.00 0.00 0.00 46 1011.6
20260507220506 13 270 8.0 9.7 0.00 0.00 0.00 48 1011.6
20260507220003 13 294 3.2 12.9 0.00 0.00 0.00 47 1011.4
20260507215459 13 2 3.2 14.5 0.00 0.00 0.00 45 1011.2
20260507214957 13 278 4.8 4.8 0.00 0.00 0.00 48 1011.3
20260507214454 12 261 6.4 11.3 0.00 0.00 0.00 47 1011.3
20260507213949 12 294 9.7 14.5 0.00 0.00 0.00 47 1011.4
20260507213447 13 353 6.4 11.3 0.00 0.00 0.00 47 1011.3
20260507212943 13 303 4.8 20.9 0.00 0.00 0.00 46 1011.5
20260507212439 14 273 17.7 20.9 0.00 0.00 0.00 48 1011.3
20260507211936 13 297 11.3 16.1 0.00 0.00 0.00 46 1011.2
20260507211427 13 328 11.3 20.9 0.00 0.00 0.00 45 1011.2
20260507210923 13 295 6.4 12.9 0.00 0.00 0.00 48 1011.3
20260507210420 13 256 9.7 12.9 0.00 0.00 0.00 47 1011.3
20260507205917 13 308 8.0 14.5 0.00 0.00 0.00 48 1011.5
20260507205415 13 289 14.5 16.1 0.00 0.00 0.00 49 1010.8
20260507204910 14 296 3.2 12.9 0.00 0.00 0.00 47 1010.9
20260507204407 13 294 6.4 11.3 0.00 0.00 0.00 54 1011.2
20260507203905 13 256 9.7 12.9 0.00 0.00 0.00 49 1011.3
20260507203402 12 294 3.2 11.3 0.00 0.00 0.00 50 1011.4
20260507202858 12 114 6.4 9.7 0.00 0.00 0.00 51 1011.4
20260507202355 12 291 6.4 16.1 0.00 0.00 0.00 52 1011.5
20260507201850 13 303 4.8 16.1 0.00 0.00 0.00 48 1011.3
20260507201346 13 36 6.4 14.5 0.00 0.00 0.00 47 1011.3
20260507200843 13 279 11.3 12.9 0.00 0.00 0.00 48 1011.4
20260507200339 13 288 4.8 14.5 0.00 0.00 0.00 51 1011.6
20260507195835 14 254 6.4 16.1 0.00 0.00 0.00 49 1011.6
20260507195332 13 279 3.2 9.7 0.00 0.00 0.00 51 1011.6
20260507194829 13 274 16.1 22.5 0.00 0.00 0.00 46 1011.8
20260507194325 14 178 6.4 14.5 0.00 0.00 0.00 48 1011.8
20260507193822 13 305 3.2 11.3 0.00 0.00 0.00 48 1011.9
20260507193319 12 277 11.3 14.5 0.00 0.00 0.00 54 1011.8
20260507192814 12 317 4.8 14.5 0.00 0.00 0.00 49 1011.9
20260507192312 13 297 6.4 12.9 0.00 0.00 0.00 49 1011.7
20260507191808 13 292 3.2 4.8 0.00 0.00 0.00 55 1011.9
20260507191304 13 264 4.8 4.8 0.00 0.00 0.00 50 1011.8
20260507190801 12 300 3.2 3.2 0.00 0.00 0.00 50 1011.8
20260507190300 12 42 3.2 6.4 0.00 0.00 0.00 50 1011.9
20260507185758 13 329 6.4 11.3 0.00 0.00 0.00 50 1011.8
20260507185254 13 298 1.6 9.7 0.00 0.00 0.00 48 1011.8
20260507184752 12 31 4.8 12.9 0.00 0.00 0.00 53 1012.2
20260507184250 13 324 6.4 11.3 0.00 0.00 0.00 51 1012.1
20260507183747 12 278 22.5 27.4 0.00 0.00 0.00 51 1012.1
20260507183244 13 255 11.3 16.1 0.00 0.00 0.00 48 1012.2
20260507182742 14 288 9.7 16.1 0.00 0.00 0.00 46 1012.2
20260507182241 13 271 14.5 17.7 0.00 0.00 0.00 48 1012.1
20260507181739 13 276 6.4 12.9 0.00 0.00 0.00 49 1012.2
20260507181235 13 232 17.7 35.4 0.00 0.00 0.00 48 1012.0
20260507180732 13 318 6.4 12.9 0.00 0.00 0.00 48 1012.1
20260507180229 13 241 6.4 16.1 0.00 0.00 0.00 53 1011.9
20260507175724 13 262 9.7 17.7 0.00 0.00 0.00 52 1012.1
20260507175221 13 261 11.3 17.7 0.00 0.00 0.00 48 1012.3
20260507174719 13 311 4.8 6.4 0.00 0.00 0.00 51 1012.1
20260507174217 13 289 6.4 11.3 0.00 0.00 0.00 48 1012.4
20260507173714 13 286 12.9 20.9 0.00 0.00 0.00 48 1012.5
20260507173210 13 272 9.7 20.9 0.00 0.00 0.00 56 1012.4
20260507172707 13 219 9.7 12.9 0.00 0.00 0.00 55 1012.4
20260507172204 13 248 17.7 24.1 0.00 0.00 0.00 51 1012.6
20260507171704 12 247 6.4 9.7 0.00 0.00 0.00 53 1012.7
20260507171202 11 258 11.3 16.1 0.00 0.00 0.00 54 1012.8
20260507170659 12 280 3.2 14.5 0.00 0.00 0.00 55 1012.8
20260507170156 13 243 8.0 12.9 0.00 0.00 0.00 54 1012.8
20260507165651 12 257 4.8 12.9 0.00 0.00 0.00 50 1012.8
20260507165148 12 262 6.4 9.7 0.00 0.00 0.00 48 1012.8
20260507164644 12 297 8.0 11.3 0.00 0.00 0.00 53 1013.1
20260507164141 13 291 6.4 11.3 0.00 0.00 0.00 57 1012.8
20260507163638 12 295 1.6 4.8 0.00 0.00 0.00 57 1013.0
20260507163136 12 294 3.2 12.9 0.00 0.00 0.00 53 1013.2
20260507162632 13 265 9.7 14.5 0.00 0.00 0.00 52 1013.2
20260507162128 12 289 8.0 12.9 0.00 0.00 0.00 59 1013.3
20260507161624 12 357 0.0 6.4 0.00 0.00 0.00 49 1013.1
20260507161121 12 255 14.5 16.1 0.00 0.00 0.00 50 1013.4
20260507160617 12 281 8.0 20.9 0.00 0.00 0.00 52 1013.3
20260507160114 12 6 8.0 11.3 0.00 0.00 0.00 50 1013.2
20260507155609 13 319 1.6 4.8 0.00 0.00 0.00 53 1013.3
20260507155106 12 35 3.2 6.4 0.00 0.00 0.00 56 1013.3
20260507154603 12 311 0.0 3.2 0.00 0.00 0.00 54 1013.5
20260507154100 11 295 4.8 14.5 0.00 0.00 0.00 52 1013.4
20260507153557 11 302 8.0 24.1 0.00 0.00 0.00 52 1013.6
20260507153053 11 356 0.0 4.8 0.00 0.00 0.00 51 1013.5
20260507152550 12 278 3.2 11.3 0.00 0.00 0.00 50 1013.4
20260507152046 12 282 6.4 6.4 0.00 0.00 0.00 51 1013.7
20260507151542 11 5 3.2 11.3 0.00 0.00 0.00 53 1013.7
20260507151039 11 5 8.0 11.3 0.00 0.00 0.00 52 1013.7
20260507150536 11 359 6.4 9.7 0.00 0.00 0.00 50 1013.7
20260507150033 11 244 9.7 14.5 0.00 0.00 0.00 57 1013.7
20260507145527 11 321 1.6 3.2 0.00 0.00 0.00 57 1013.8
20260507145026 11 324 8.0 14.5 0.00 0.00 0.00 50 1013.8
20260507144522 11 281 4.8 11.3 0.00 0.00 0.00 53 1014.0
20260507144020 11 252 8.0 9.7 0.00 0.00 0.00 59 1014.0
20260507143517 11 234 3.2 6.4 0.00 0.00 0.00 57 1014.0
20260507143014 11 48 0.0 3.2 0.00 0.00 0.00 51 1014.2
20260507142509 10 304 6.4 9.7 0.00 0.00 0.00 54 1014.2
20260507142007 10 309 8.0 14.5 0.00 0.00 0.00 55 1013.9
20260507141502 11 283 1.6 11.3 0.00 0.00 0.00 59 1014.3
20260507140959 11 23 1.6 4.8 0.00 0.00 0.00 56 1014.4
20260507140455 11 282 4.8 12.9 0.00 0.00 0.00 61 1014.5
20260507135953 11 273 3.2 6.4 0.00 0.00 0.00 61 1014.7
20260507135450 10 311 6.4 6.4 0.00 0.00 0.00 60 1014.6
20260507134948 10 311 4.8 11.3 0.00 0.00 0.00 59 1014.6
20260507134444 10 23 1.6 11.3 0.00 0.00 0.00 62 1014.7
20260507133940 10 306 3.2 6.4 0.00 0.00 0.00 60 1014.7
20260507133436 10 275 4.8 6.4 0.00 0.00 0.00 68 1014.9
20260507132935 10 302 1.6 6.4 0.00 0.00 0.00 70 1014.7
20260507132430 10 48 3.2 4.8 0.00 0.00 0.00 64 1014.9
20260507131927 10 292 3.2 9.7 0.00 0.00 0.00 62 1015.0
20260507131424 9 310 1.6 11.3 0.00 0.00 0.00 65 1014.9
20260507130921 9 232 6.4 6.4 0.00 0.00 0.00 68 1014.7
20260507130418 9 289 3.2 3.2 0.00 0.00 0.00 76 1014.9
20260507125917 9 217 4.8 9.7 0.00 0.00 0.00 71 1015.0
20260507125415 8 246 0.0 9.7 0.00 0.00 0.00 75 1014.9
20260507124912 8 273 1.6 4.8 0.00 0.00 0.00 74 1014.7
20260507124407 8 206 3.2 4.8 0.00 0.00 0.00 73 1015.0
20260507123906 8 233 0.0 3.2 0.00 0.00 0.00 76 1015.0
20260507123403 8 274 1.6 4.8 0.00 0.00 0.00 80 1015.1
20260507122859 8 260 1.6 3.2 0.00 0.00 0.00 83 1015.0
20260507122355 7 288 1.6 4.8 0.00 0.00 0.00 81 1015.0
20260507121851 8 229 0.0 1.6 0.00 0.00 0.00 86 1014.9
20260507121347 7 206 0.0 3.2 0.00 0.00 0.00 86 1014.9
20260507120844 7 208 1.6 3.2 0.00 0.00 0.00 89 1014.7
20260507120340 7 219 0.0 1.6 0.00 0.00 0.00 91 1014.9
20260507115836 6 236 0.0 0.0 0.00 0.00 0.00 92 1014.6
20260507115332 6 250 0.0 0.0 0.00 0.00 0.00 94 1014.7
20260507114828 6 255 0.0 0.0 0.00 0.00 0.00 97 1014.7
20260507114325 6 7 0.0 0.0 0.00 0.00 0.00 99 1014.9
20260507113823 6 7 0.0 0.0 0.00 0.00 0.00 99 1014.7
20260507113319 5 353 0.0 0.0 0.00 0.00 0.00 99 1014.6
20260507112817 5 352 0.0 0.0 0.00 0.00 0.00 98 1014.9
20260507112314 5 352 0.0 0.0 0.00 0.00 0.00 98 1014.4
20260507111812 5 352 0.0 0.0 0.00 0.00 0.00 98 1014.5
20260507111308 5 352 0.0 0.0 0.00 0.00 0.00 98 1014.5
20260507110804 5 352 0.0 0.0 0.00 0.00 0.00 98 1014.2
20260507110301 5 353 0.0 0.0 0.00 0.00 0.00 98 1014.4
20260507105758 5 353 0.0 0.0 0.00 0.00 0.00 97 1014.2
20260507105254 5 353 0.0 0.0 0.00 0.00 0.00 96 1014.1
20260507104751 5 353 0.0 0.0 0.00 0.00 0.00 96 1014.1
20260507104248 5 353 0.0 0.0 0.00 0.00 0.00 96 1014.2
20260507103743 5 353 0.0 0.0 0.00 0.00 0.00 96 1014.3
20260507103235 5 353 0.0 0.0 0.00 0.00 0.00 96 1014.1
20260507102731 5 354 0.0 0.0 0.00 0.00 0.00 96 1014.1
20260507102228 5 353 0.0 0.0 0.00 0.00 0.00 96 1014.0
20260507101723 5 353 0.0 0.0 0.00 0.00 0.00 96 1014.1
20260507101213 5 353 0.0 0.0 0.00 0.00 0.00 96 1014.1
20260507100711 5 353 0.0 0.0 0.00 0.00 0.00 96 1014.0
20260507100209 5 353 0.0 0.0 0.00 0.00 0.00 96 1014.0
20260507095707 5 353 0.0 0.0 0.00 0.00 0.00 96 1013.8
20260507095203 5 353 0.0 0.0 0.00 0.00 0.00 96 1014.0
20260507094700 5 353 0.0 0.0 0.00 0.00 0.00 97 1014.0
20260507094156 5 353 0.0 0.0 0.00 0.00 0.00 97 1014.0
20260507093654 5 353 0.0 0.0 0.00 0.00 0.00 97 1013.8
20260507093153 5 353 0.0 0.0 0.00 0.00 0.00 96 1014.0
20260507092649 5 353 0.0 0.0 0.00 0.00 0.00 95 1013.8
20260507092145 5 353 0.0 0.0 0.00 0.00 0.00 95 1013.7
20260507091642 6 353 0.0 0.0 0.00 0.00 0.00 94 1013.9
20260507091138 6 353 0.0 0.0 0.00 0.00 0.00 94 1014.0
20260507090634 6 353 0.0 0.0 0.00 0.00 0.00 93 1013.8
20260507090132 6 353 0.0 0.0 0.00 0.00 0.00 92 1013.9
20260507085628 6 353 0.0 0.0 0.00 0.00 0.00 95 1014.0
20260507085125 6 353 0.0 0.0 0.00 0.00 0.00 96 1013.9
20260507084621 6 353 0.0 0.0 0.00 0.00 0.00 96 1013.8
20260507084118 6 353 0.0 0.0 0.00 0.00 0.00 96 1014.0
20260507083615 7 2 0.0 0.0 0.00 0.00 0.00 94 1014.1
20260507083112 7 2 0.0 0.0 0.00 0.00 0.00 93 1014.0
20260507082608 7 2 0.0 0.0 0.00 0.00 0.00 93 1013.8
20260507082104 6 0 0.0 0.0 0.00 0.00 0.00 95 1013.7
20260507081601 7 0 0.0 0.0 0.00 0.00 0.00 97 1013.8
20260507081058 6 359 0.0 0.0 0.00 0.00 0.00 97 1014.2
20260507080554 6 317 0.0 0.0 0.00 0.00 0.00 98 1013.8
20260507080050 7 317 0.0 0.0 0.00 0.00 0.00 97 1013.8
20260507075545 7 317 0.0 0.0 0.00 0.00 0.00 97 1013.9
20260507075042 7 317 0.0 0.0 0.00 0.00 0.00 97 1013.9
20260507074539 7 317 0.0 0.0 0.00 0.00 0.00 97 1013.7
20260507074037 7 317 0.0 0.0 0.00 0.00 0.00 97 1013.6
20260507073533 7 317 0.0 0.0 0.00 0.00 0.00 97 1013.9
20260507073030 7 317 0.0 0.0 0.00 0.00 0.00 97 1013.8
20260507072527 7 317 0.0 0.0 0.00 0.00 0.00 97 1013.8
20260507072024 7 317 0.0 0.0 0.00 0.00 0.00 97 1013.8
20260507071522 7 317 0.0 0.0 0.00 0.00 0.00 97 1013.7
20260507071018 7 317 0.0 0.0 0.00 0.00 0.00 97 1013.8
20260507070516 7 317 0.0 0.0 0.00 0.00 0.00 97 1013.6
20260507070014 7 317 0.0 0.0 0.00 0.00 0.00 98 1013.5
20260507065509 7 317 0.0 0.0 0.00 0.00 0.00 98 1013.7
20260507065006 7 317 0.0 0.0 0.00 0.00 0.00 98 1013.6
20260507064504 7 317 0.0 0.0 0.00 0.00 0.00 98 1013.7
20260507064002 7 317 0.0 0.0 0.00 0.00 0.00 97 1013.5
20260507063458 7 317 0.0 1.6 0.00 0.00 0.00 97 1013.8
20260507062956 7 317 0.0 0.0 0.00 0.00 0.00 96 1013.7
20260507062453 7 317 0.0 0.0 0.00 0.00 0.00 96 1013.8
20260507061950 7 317 0.0 0.0 0.00 0.00 0.00 96 1013.6
20260507061448 7 317 0.0 0.0 0.00 0.00 0.00 96 1013.6
20260507060946 7 317 0.0 0.0 0.00 0.00 0.00 96 1013.8
20260507060443 7 317 0.0 0.0 0.00 0.00 0.00 96 1013.8
20260507055939 7 317 0.0 0.0 0.00 0.00 0.00 96 1013.9
20260507055434 7 317 0.0 1.6 0.00 0.00 0.00 97 1013.9
20260507054932 7 357 0.0 0.0 0.00 0.00 0.00 97 1014.1
20260507054428 7 356 0.0 0.0 0.00 0.00 0.00 98 1014.1
20260507053925 7 356 0.0 0.0 0.00 0.00 0.00 98 1014.2
20260507053422 7 335 0.0 1.6 0.00 0.00 0.00 99 1014.3
20260507052921 7 358 0.0 0.0 0.00 0.00 0.00 99 1014.2
20260507052417 7 1 0.0 1.6 0.00 0.00 0.00 99 1014.1
20260507051909 7 1 0.0 3.2 0.00 0.00 0.00 99 1014.4
20260507051407 8 350 0.0 4.8 0.00 0.00 0.00 99 1014.3
20260507050904 8 256 6.4 11.3 0.00 0.00 0.00 99 1014.2
20260507050400 8 248 3.2 3.2 0.00 0.00 0.00 99 1014.2
20260507045857 8 283 0.0 1.6 0.00 0.00 0.00 99 1014.3
20260507045353 8 280 0.0 0.0 0.00 0.00 0.00 99 1014.2
20260507044851 8 267 1.6 1.6 0.00 0.00 0.00 99 1014.2
20260507044347 8 256 1.6 3.2 0.00 0.00 0.00 99 1014.1
20260507043843 8 303 0.0 0.0 0.00 0.00 0.00 99 1014.0
20260507043340 8 304 0.0 0.0 0.00 0.00 0.00 99 1014.5
20260507042836 8 304 0.0 0.0 0.00 0.00 0.00 99 1014.2
20260507042332 8 335 0.0 0.0 0.00 0.00 0.00 99 1014.1
20260507041829 8 338 0.0 0.0 0.00 0.00 0.00 99 1014.3
20260507041326 8 348 0.0 0.0 0.00 0.00 0.00 99 1014.2
20260507040823 8 305 0.0 1.6 0.00 0.00 0.00 99 1014.3
20260507040319 8 286 0.0 0.0 0.00 0.00 0.00 99 1014.0
20260507035815 8 260 0.0 0.0 0.00 0.69 0.69 99 1014.1
20260507035310 8 260 0.0 0.0 0.00 0.69 0.69 99 1014.2
20260507034808 8 242 0.0 1.6 0.00 0.69 0.69 99 1014.4
20260507034305 8 242 1.6 1.6 0.00 0.69 0.69 99 1014.0
20260507033803 8 269 0.0 0.0 0.00 0.69 0.69 99 1013.9
20260507033301 8 269 0.0 0.0 0.00 0.69 0.69 99 1014.1
20260507032757 8 269 0.0 0.0 0.00 0.69 0.69 99 1014.4
20260507032253 8 270 0.0 0.0 0.00 0.69 0.69 99 1014.6
20260507031750 8 267 0.0 0.0 0.00 0.69 0.69 99 1014.5
20260507031247 8 249 1.6 1.6 0.00 0.69 0.69 99 1014.7
20260507030744 8 270 0.0 0.0 0.00 0.69 0.69 99 1014.4
20260507030241 8 269 0.0 3.2 0.00 0.69 0.69 99 1014.5
20260507025738 8 244 1.6 1.6 0.00 0.69 0.69 99 1013.8
20260507025235 8 247 0.0 0.0 0.00 0.69 0.69 99 1014.2
20260507024734 8 262 0.0 0.0 0.00 0.69 0.69 99 1014.2
20260507024231 8 257 0.0 0.0 0.00 0.69 0.69 99 1014.0
20260507023726 8 257 0.0 0.0 0.13 0.69 0.69 99 1014.2
20260507023223 8 233 1.6 4.8 0.13 0.69 0.69 99 1014.1
20260507022720 8 237 0.0 3.2 0.00 0.66 0.66 99 1014.1
20260507022216 8 262 0.0 0.0 0.00 0.66 0.66 99 1013.9
20260507021713 8 262 0.0 0.0 0.00 0.66 0.66 99 1013.8
20260507021208 8 262 0.0 0.0 0.00 0.66 0.66 99 1013.9
20260507020707 8 262 0.0 0.0 0.00 0.66 0.66 99 1014.0
20260507020202 8 262 0.0 0.0 0.00 0.66 0.66 99 1013.9
20260507015700 8 262 0.0 0.0 0.00 0.66 0.66 99 1013.5
20260507015157 8 262 0.0 0.0 0.00 0.66 0.66 99 1013.6
20260507014653 8 262 0.0 0.0 0.00 0.66 0.66 99 1013.6
20260507014149 8 262 0.0 0.0 0.00 0.66 0.66 98 1013.6
20260507013646 8 262 0.0 1.6 0.00 0.66 0.66 98 1013.7
20260507013144 8 273 0.0 1.6 0.00 0.66 0.66 98 1013.8
20260507012641 8 267 3.2 3.2 0.00 0.66 0.66 98 1013.9
20260507012131 8 261 1.6 1.6 0.00 0.66 0.66 97 1013.5
20260507011630 8 261 1.6 1.6 0.00 0.66 0.66 98 1013.0
20260507011125 8 339 0.0 0.0 0.00 0.66 0.66 98 1012.8
20260507010620 8 339 0.0 0.0 0.00 0.66 0.66 98 1013.1
20260507010116 8 338 0.0 0.0 0.00 0.66 0.66 97 1013.2
20260507005614 8 337 0.0 0.0 0.00 0.66 0.66 97 1013.2
20260507005110 8 274 1.6 3.2 0.00 0.66 0.66 97 1013.7
20260507004607 8 331 1.6 1.6 0.00 0.66 0.66 97 1013.7
20260507004104 8 358 0.0 1.6 0.00 0.66 0.66 97 1013.6
20260507003600 8 336 0.0 0.0 0.00 0.66 0.66 97 1013.6
20260507003055 8 309 3.2 4.8 0.00 0.66 0.66 96 1013.5
20260507002552 8 357 0.0 3.2 0.00 0.66 0.66 96 1013.5
20260507002048 9 336 0.0 1.6 0.00 0.66 0.66 95 1013.6
20260507001545 9 0 1.6 4.8 0.00 0.66 0.66 94 1013.5
20260507001042 9 335 1.6 6.4 0.00 0.66 0.66 94 1013.8
20260507000538 9 300 0.0 4.8 0.00 0.66 0.66 94 1013.8
20260507000034 10 342 0.0 1.6 0.00 0.66 0.66 95 1013.8
20260506235531 10 301 0.0 0.0 0.00 0.66 0.66 94 1013.7
20260506235027 10 339 1.6 3.2 0.00 0.66 0.66 94 1013.5
20260506234524 10 305 0.0 1.6 0.00 0.66 0.66 94 1013.5
20260506234016 10 307 3.2 3.2 0.00 0.66 0.66 94 1013.4
20260506233512 10 305 0.0 6.4 0.00 0.66 0.66 95 1013.3
20260506233010 10 287 3.2 3.2 0.00 0.66 0.66 95 1013.3
20260506232506 10 322 0.0 3.2 0.00 0.66 0.66 95 1013.4
20260506232001 10 294 0.0 1.6 0.00 0.66 0.66 95 1013.1